NOZ3NG LFMN-ENGM

Flight info

Callsign NOZ3NG
Flight time 2h 34m
Altitude 34000
Route IRMAR DCT KINES DCT VANAS DCT MOBLO DCT UBIMA DCT GILIR DCT PENDU/N0442F360 DCT UZCUX DCT SOSAD DCT OBOKA/N0438F350 DCT AMRAK/N0440F370 DCT SABAK/N0436F360 L997 LUNIP
Aircraft B738/M-SDE2E3GHIJ1LRWXY/LB1

Departure

Time 2026-05-07 20:24
Airport Nice-Côte d'Azur Airport (LFMN)

Arrival

Time 2026-05-07 22:58
Airport Oslo-Gardermoen International Airport (ENGM)
Time Latitude Longitude Altitude Speed Heading
2026-05-07 19:34 43.66504 7.21535 20 ft 0 kts 315°
2026-05-07 19:36 43.66473 7.21496 21 ft 0 kts 315°
2026-05-07 20:09 43.66471 7.21499 20 ft 3 kts 315°
2026-05-07 20:10 43.66439 7.21546 20 ft 4 kts 280°
2026-05-07 20:10 43.66444 7.21577 22 ft 4 kts 229°
2026-05-07 20:10 43.66462 7.21601 22 ft 4 kts 225°
2026-05-07 20:10 43.66466 7.21607 22 ft 1 kts 225°
2026-05-07 20:12 43.66465 7.21606 22 ft 1 kts 225°
2026-05-07 20:13 43.66455 7.21592 23 ft 3 kts 225°
2026-05-07 20:13 43.66440 7.21571 21 ft 3 kts 224°
2026-05-07 20:13 43.66425 7.21551 21 ft 3 kts 224°
2026-05-07 20:13 43.66417 7.21540 20 ft 0 kts 224°
2026-05-07 20:14 43.66416 7.21538 20 ft 1 kts 224°
2026-05-07 20:14 43.66389 7.21502 20 ft 9 kts 225°
2026-05-07 20:14 43.66336 7.21417 20 ft 12 kts 229°
2026-05-07 20:14 43.66278 7.21333 20 ft 12 kts 224°
2026-05-07 20:15 43.66219 7.21254 20 ft 12 kts 224°
2026-05-07 20:15 43.66162 7.21175 20 ft 11 kts 225°
2026-05-07 20:15 43.66107 7.21099 20 ft 11 kts 225°
2026-05-07 20:15 43.66053 7.21026 20 ft 11 kts 225°
2026-05-07 20:16 43.66001 7.20954 20 ft 10 kts 225°
2026-05-07 20:16 43.65950 7.20884 20 ft 10 kts 225°
2026-05-07 20:16 43.65891 7.20844 20 ft 10 kts 175°
2026-05-07 20:16 43.65824 7.20858 20 ft 10 kts 171°
2026-05-07 20:17 43.65754 7.20873 20 ft 10 kts 171°
2026-05-07 20:17 43.65683 7.20890 20 ft 10 kts 170°
2026-05-07 20:17 43.65614 7.20906 20 ft 11 kts 171°
2026-05-07 20:17 43.65531 7.20924 22 ft 14 kts 171°
2026-05-07 20:18 43.65436 7.20945 20 ft 14 kts 171°
2026-05-07 20:18 43.65344 7.20941 20 ft 13 kts 206°
2026-05-07 20:18 43.65279 7.20858 20 ft 13 kts 225°
2026-05-07 20:18 43.65207 7.20760 20 ft 16 kts 225°
2026-05-07 20:19 43.65123 7.20644 20 ft 17 kts 225°
2026-05-07 20:19 43.65039 7.20529 20 ft 17 kts 225°
2026-05-07 20:19 43.64958 7.20419 21 ft 16 kts 224°
2026-05-07 20:19 43.64886 7.20319 21 ft 13 kts 225°
2026-05-07 20:20 43.64834 7.20270 21 ft 2 kts 192°
2026-05-07 20:20 43.64826 7.20269 21 ft 1 kts 186°
2026-05-07 20:20 43.64808 7.20272 21 ft 6 kts 165°
2026-05-07 20:20 43.64768 7.20312 22 ft 7 kts 136°
2026-05-07 20:21 43.64754 7.20361 22 ft 5 kts 59°
2026-05-07 20:21 43.64760 7.20368 22 ft 0 kts 44°
2026-05-07 20:23 43.64765 7.20376 25 ft 6 kts 44°
2026-05-07 20:23 43.64956 7.20637 22 ft 74 kts 45°
2026-05-07 20:23 43.65477 7.21351 23 ft 135 kts 45°
2026-05-07 20:23 43.66257 7.22403 224 ft 167 kts 45°
2026-05-07 20:24 43.66805 7.23156 668 ft 169 kts 46°
2026-05-07 20:24 43.67346 7.24622 1137 ft 187 kts 86°
2026-05-07 20:24 43.66955 7.26417 1431 ft 208 kts 127°
2026-05-07 20:24 43.65476 7.28159 2131 ft 216 kts 143°
2026-05-07 20:25 43.64253 7.29378 2759 ft 217 kts 144°
2026-05-07 20:25 43.63424 7.30202 3186 ft 218 kts 144°
2026-05-07 20:25 43.61737 7.31746 3942 ft 222 kts 159°
2026-05-07 20:25 43.60216 7.31860 4518 ft 224 kts 198°
2026-05-07 20:26 43.59262 7.31266 4951 ft 223 kts 209°
2026-05-07 20:26 43.57927 7.30151 5497 ft 227 kts 212°
2026-05-07 20:26 43.56584 7.28981 6045 ft 230 kts 212°
2026-05-07 20:26 43.55309 7.27639 6570 ft 234 kts 231°
2026-05-07 20:27 43.54694 7.25621 7091 ft 235 kts 265°
2026-05-07 20:27 43.55003 7.23406 7617 ft 237 kts 299°
2026-05-07 20:27 43.55939 7.21536 8146 ft 239 kts 308°
2026-05-07 20:27 43.56987 7.19740 8670 ft 242 kts 309°
2026-05-07 20:28 43.58034 7.17948 9189 ft 244 kts 309°
2026-05-07 20:28 43.59096 7.16107 9727 ft 247 kts 308°
2026-05-07 20:28 43.60165 7.14238 10225 ft 249 kts 308°
2026-05-07 20:28 43.61260 7.12384 10695 ft 252 kts 314°
2026-05-07 20:29 43.62604 7.10699 10872 ft 271 kts 320°
2026-05-07 20:29 43.64129 7.08998 11037 ft 293 kts 321°
2026-05-07 20:29 43.65785 7.07176 11218 ft 315 kts 321°
2026-05-07 20:29 43.67550 7.05220 11404 ft 336 kts 321°
2026-05-07 20:30 43.69398 7.03151 11823 ft 347 kts 320°
2026-05-07 20:30 43.71280 7.01025 12474 ft 351 kts 320°
2026-05-07 20:30 43.73170 6.98875 13216 ft 353 kts 319°
2026-05-07 20:30 43.75072 6.96704 13909 ft 356 kts 319°
2026-05-07 20:31 43.76991 6.94507 14557 ft 360 kts 319°
2026-05-07 20:31 43.78923 6.92290 15231 ft 362 kts 319°
2026-05-07 20:31 43.80873 6.90051 15923 ft 365 kts 319°
2026-05-07 20:31 43.82833 6.87799 16608 ft 368 kts 319°
2026-05-07 20:32 43.84813 6.85520 16993 ft 372 kts 319°
2026-05-07 20:32 43.86807 6.83223 17049 ft 376 kts 319°
2026-05-07 20:32 43.88829 6.80892 17619 ft 379 kts 319°
2026-05-07 20:32 43.90852 6.78560 18412 ft 378 kts 318°
2026-05-07 20:33 43.92877 6.76223 19009 ft 380 kts 318°
2026-05-07 20:33 43.94956 6.73942 19563 ft 384 kts 323°
2026-05-07 20:33 43.97242 6.71983 20126 ft 388 kts 328°
2026-05-07 20:33 43.99609 6.70160 20696 ft 391 kts 328°
2026-05-07 20:34 44.02006 6.68344 21240 ft 394 kts 328°
2026-05-07 20:34 44.04405 6.66495 21819 ft 396 kts 327°
2026-05-07 20:34 44.06809 6.64604 22391 ft 397 kts 327°
2026-05-07 20:34 44.09212 6.62685 22945 ft 400 kts 326°
2026-05-07 20:35 44.11627 6.60743 23466 ft 403 kts 326°
2026-05-07 20:35 44.14057 6.58784 23920 ft 405 kts 326°
2026-05-07 20:35 44.16503 6.56810 24339 ft 407 kts 326°
2026-05-07 20:35 44.18989 6.54882 24750 ft 412 kts 332°
2026-05-07 20:36 44.21803 6.53888 25097 ft 427 kts 352°
2026-05-07 20:36 44.24788 6.54221 25518 ft 437 kts 11°
2026-05-07 20:36 44.27718 6.55422 25930 ft 440 kts 14°
2026-05-07 20:36 44.30643 6.56755 26248 ft 444 kts 15°
2026-05-07 20:37 44.33585 6.58132 26597 ft 448 kts 15°
2026-05-07 20:37 44.36544 6.59510 26964 ft 450 kts 14°
2026-05-07 20:37 44.39533 6.60880 27318 ft 453 kts 14°
2026-05-07 20:37 44.42541 6.62237 27665 ft 456 kts 14°
2026-05-07 20:38 44.45568 6.63591 28071 ft 457 kts 13°
2026-05-07 20:38 44.48600 6.64938 28392 ft 459 kts 13°
2026-05-07 20:38 44.51658 6.66299 28694 ft 462 kts 13°
2026-05-07 20:38 44.54730 6.67669 29023 ft 465 kts 13°
2026-05-07 20:39 44.57821 6.69048 29315 ft 468 kts 13°
2026-05-07 20:39 44.60884 6.70416 29643 ft 470 kts 13°
2026-05-07 20:39 44.64009 6.71814 29999 ft 471 kts 13°
2026-05-07 20:39 44.67138 6.73217 30210 ft 474 kts 13°
2026-05-07 20:40 44.70288 6.74631 30451 ft 477 kts 13°
2026-05-07 20:40 44.73456 6.76053 30692 ft 479 kts 13°
2026-05-07 20:40 44.76630 6.77478 31012 ft 478 kts 12°
2026-05-07 20:40 44.79829 6.78559 31427 ft 469 kts
2026-05-07 20:41 44.83055 6.78966 31735 ft 461 kts 353°
2026-05-07 20:41 44.86234 6.78788 32048 ft 457 kts 350°
2026-05-07 20:41 44.89408 6.78517 32355 ft 457 kts 349°
2026-05-07 20:41 44.92583 6.78246 32618 ft 458 kts 349°
2026-05-07 20:42 44.95759 6.77995 32962 ft 455 kts 350°
2026-05-07 20:42 44.98913 6.77768 33270 ft 454 kts 350°
2026-05-07 20:42 45.02075 6.77551 33493 ft 455 kts 350°
2026-05-07 20:42 45.05245 6.77339 33766 ft 456 kts 350°
2026-05-07 20:43 45.08406 6.77132 34060 ft 455 kts 350°
2026-05-07 20:43 45.11560 6.76927 34350 ft 453 kts 350°
2026-05-07 20:43 45.14715 6.76720 34576 ft 454 kts 350°
2026-05-07 20:43 45.17876 6.76511 34808 ft 454 kts 350°
2026-05-07 20:44 45.21027 6.76301 35086 ft 453 kts 351°
2026-05-07 20:44 45.24179 6.76089 35296 ft 453 kts 352°
2026-05-07 20:44 45.27331 6.75884 35469 ft 454 kts 352°
2026-05-07 20:44 45.30494 6.75675 35641 ft 454 kts 352°
2026-05-07 20:45 45.33649 6.75465 35871 ft 454 kts 352°
2026-05-07 20:45 45.36797 6.75262 36019 ft 455 kts 352°
2026-05-07 20:45 45.39969 6.75061 36029 ft 458 kts 352°
2026-05-07 20:46 45.46347 6.74658 36017 ft 457 kts 352°
2026-05-07 20:46 45.52654 6.74240 36024 ft 451 kts 352°
2026-05-07 20:47 45.58904 6.73811 36041 ft 448 kts 352°
2026-05-07 20:47 45.65129 6.73384 35995 ft 447 kts 352°
2026-05-07 20:48 45.71317 6.72966 36031 ft 445 kts 352°
2026-05-07 20:48 45.77565 6.72532 36035 ft 454 kts 353°
2026-05-07 20:49 45.83893 6.72099 36004 ft 456 kts 352°
2026-05-07 20:49 45.90219 6.71661 36014 ft 455 kts 352°
2026-05-07 20:50 45.96554 6.71221 35999 ft 455 kts 353°
2026-05-07 20:50 46.02839 6.70783 36013 ft 455 kts 353°
2026-05-07 20:51 46.09140 6.70343 36014 ft 453 kts 353°
2026-05-07 20:51 46.15285 6.68986 35996 ft 443 kts 337°
2026-05-07 20:52 46.21092 6.66122 36003 ft 440 kts 336°
2026-05-07 20:52 46.26859 6.63223 36011 ft 438 kts 336°
2026-05-07 20:53 46.32635 6.60367 36002 ft 439 kts 336°
2026-05-07 20:53 46.38417 6.57537 36014 ft 438 kts 337°
2026-05-07 20:54 46.44187 6.54715 36001 ft 438 kts 336°
2026-05-07 20:54 46.49953 6.51888 36004 ft 437 kts 336°
2026-05-07 20:55 46.55714 6.49055 36012 ft 437 kts 336°
2026-05-07 20:55 46.61471 6.46218 36020 ft 437 kts 337°
2026-05-07 20:56 46.67232 6.43372 36019 ft 438 kts 337°
2026-05-07 20:56 46.73006 6.40513 36024 ft 438 kts 337°
2026-05-07 20:57 46.78753 6.37661 36028 ft 440 kts 337°
2026-05-07 20:57 46.84552 6.34777 36028 ft 441 kts 336°
2026-05-07 20:58 46.90362 6.31880 36026 ft 441 kts 336°
2026-05-07 20:58 46.96177 6.28975 36035 ft 441 kts 336°
2026-05-07 20:59 47.01986 6.26067 36045 ft 441 kts 336°
2026-05-07 20:59 47.07745 6.23032 36032 ft 437 kts 331°
2026-05-07 21:00 47.13189 6.19124 36033 ft 435 kts 328°
2026-05-07 21:00 47.18588 6.15106 36033 ft 435 kts 329°
2026-05-07 21:01 47.24012 6.11168 36043 ft 435 kts 329°
2026-05-07 21:01 47.29442 6.07253 36034 ft 435 kts 329°
2026-05-07 21:02 47.35210 6.04523 36036 ft 446 kts 353°
2026-05-07 21:02 47.38327 6.04729 36026 ft 454 kts
2026-05-07 21:02 47.41389 6.05945 36052 ft 457 kts 13°
2026-05-07 21:03 47.47462 6.08792 36039 ft 458 kts 14°
2026-05-07 21:03 47.53535 6.11647 36030 ft 458 kts 13°
2026-05-07 21:04 47.59620 6.14443 36042 ft 458 kts 13°
2026-05-07 21:04 47.65672 6.17194 36058 ft 458 kts 13°
2026-05-07 21:05 47.71775 6.19966 36047 ft 459 kts 13°
2026-05-07 21:05 47.77878 6.22746 36047 ft 459 kts 13°
2026-05-07 21:06 47.83978 6.25535 36048 ft 459 kts 13°
2026-05-07 21:06 47.90074 6.28329 36051 ft 459 kts 13°
2026-05-07 21:07 47.96172 6.31130 36055 ft 458 kts 13°
2026-05-07 21:07 48.02267 6.33938 36057 ft 458 kts 13°
2026-05-07 21:08 48.08360 6.36751 36064 ft 458 kts 14°
2026-05-07 21:08 48.14448 6.39568 36060 ft 458 kts 14°
2026-05-07 21:09 48.20530 6.42390 36055 ft 457 kts 14°
2026-05-07 21:09 48.26598 6.45213 36075 ft 456 kts 14°
2026-05-07 21:10 48.32661 6.48040 36062 ft 456 kts 14°
2026-05-07 21:10 48.38725 6.50875 36059 ft 456 kts 14°
2026-05-07 21:11 48.44776 6.53711 36059 ft 455 kts 14°
2026-05-07 21:11 48.53840 6.57971 36060 ft 455 kts 14°
2026-05-07 21:12 48.59883 6.60821 36068 ft 455 kts 14°
2026-05-07 21:12 48.64901 6.63193 36073 ft 455 kts 14°
2026-05-07 21:13 48.70941 6.66054 36072 ft 455 kts 14°
2026-05-07 21:13 48.76981 6.68923 36076 ft 455 kts 14°
2026-05-07 21:14 48.83023 6.71800 36076 ft 455 kts 14°
2026-05-07 21:14 48.89068 6.74686 36093 ft 455 kts 14°
2026-05-07 21:15 48.95113 6.77579 36082 ft 456 kts 14°
2026-05-07 21:15 49.01162 6.80482 36079 ft 456 kts 14°
2026-05-07 21:16 49.07211 6.83391 36079 ft 456 kts 14°
2026-05-07 21:16 49.13264 6.86311 36087 ft 456 kts 14°
2026-05-07 21:17 49.19278 6.89219 36075 ft 456 kts 14°
2026-05-07 21:17 49.25322 6.92156 36076 ft 456 kts 15°
2026-05-07 21:18 49.31389 6.94924 36074 ft 453 kts
2026-05-07 21:18 49.37571 6.96617 36085 ft 451 kts
2026-05-07 21:19 49.43769 6.98121 36076 ft 451 kts
2026-05-07 21:19 49.49959 6.99692 36078 ft 450 kts
2026-05-07 21:20 49.56136 7.01324 36094 ft 450 kts
2026-05-07 21:20 49.62305 7.02978 36080 ft 450 kts
2026-05-07 21:21 49.68477 7.04639 36083 ft 450 kts
2026-05-07 21:21 49.74637 7.06299 36084 ft 450 kts
2026-05-07 21:22 49.80805 7.07964 36083 ft 450 kts
2026-05-07 21:22 49.86961 7.09630 36076 ft 449 kts
2026-05-07 21:23 49.93122 7.11302 36075 ft 449 kts
2026-05-07 21:23 49.99271 7.12974 36086 ft 449 kts
2026-05-07 21:24 50.05425 7.14652 36076 ft 449 kts
2026-05-07 21:24 50.11575 7.16334 36074 ft 449 kts
2026-05-07 21:25 50.17728 7.18022 36076 ft 449 kts
2026-05-07 21:25 50.23873 7.19711 36082 ft 449 kts
2026-05-07 21:26 50.30024 7.21406 36081 ft 449 kts
2026-05-07 21:26 50.36171 7.23104 36079 ft 449 kts
2026-05-07 21:27 50.42317 7.24808 36092 ft 448 kts
2026-05-07 21:27 50.48466 7.26516 36080 ft 449 kts
2026-05-07 21:28 50.54623 7.28230 36076 ft 449 kts
2026-05-07 21:28 50.60773 7.29949 36085 ft 449 kts
2026-05-07 21:29 50.66929 7.31672 36099 ft 449 kts
2026-05-07 21:29 50.73092 7.33403 36092 ft 450 kts
2026-05-07 21:30 50.79144 7.35987 36109 ft 452 kts 17°
2026-05-07 21:30 50.85080 7.39291 36099 ft 453 kts 17°
2026-05-07 21:31 50.91013 7.42623 36099 ft 453 kts 17°
2026-05-07 21:31 50.96968 7.45896 36100 ft 453 kts 17°
2026-05-07 21:32 51.02895 7.49118 36100 ft 453 kts 16°
2026-05-07 21:32 51.08860 7.52328 36086 ft 453 kts 16°
2026-05-07 21:33 51.14827 7.55577 36092 ft 453 kts 17°
2026-05-07 21:33 51.20778 7.58861 36112 ft 454 kts 17°
2026-05-07 21:34 51.26791 7.62149 36359 ft 458 kts 17°
2026-05-07 21:34 51.29797 7.63793 36624 ft 456 kts 17°
2026-05-07 21:34 51.32797 7.65439 36866 ft 456 kts 17°
2026-05-07 21:35 51.35795 7.67087 37050 ft 455 kts 17°
2026-05-07 21:35 51.38780 7.68733 37095 ft 455 kts 17°
2026-05-07 21:35 51.44783 7.72047 37101 ft 457 kts 17°
2026-05-07 21:36 51.50794 7.75385 37111 ft 457 kts 17°
2026-05-07 21:36 51.56804 7.78728 37114 ft 458 kts 17°
2026-05-07 21:37 51.62827 7.82085 37105 ft 458 kts 17°
2026-05-07 21:37 51.68844 7.85454 37106 ft 458 kts 18°
2026-05-07 21:38 51.74859 7.88831 37110 ft 457 kts 18°
2026-05-07 21:38 51.80866 7.92208 37118 ft 457 kts 18°
2026-05-07 21:39 51.86868 7.95590 37112 ft 456 kts 18°
2026-05-07 21:39 51.92858 7.98975 37117 ft 456 kts 18°
2026-05-07 21:40 51.98841 8.02367 37118 ft 455 kts 18°
2026-05-07 21:40 52.04815 8.05762 37128 ft 455 kts 18°
2026-05-07 21:41 52.10780 8.09162 37125 ft 454 kts 18°
2026-05-07 21:41 52.16744 8.12572 37126 ft 454 kts 18°
2026-05-07 21:42 52.22710 8.15992 37125 ft 454 kts 18°
2026-05-07 21:42 52.28666 8.19417 37122 ft 454 kts 18°
2026-05-07 21:43 52.34583 8.22828 37122 ft 454 kts 18°
2026-05-07 21:43 52.40582 8.26296 37129 ft 454 kts 18°
2026-05-07 21:44 52.46499 8.29728 37129 ft 454 kts 18°
2026-05-07 21:44 52.52457 8.33192 37131 ft 455 kts 18°
2026-05-07 21:45 52.58425 8.36673 37130 ft 455 kts 18°
2026-05-07 21:45 52.64397 8.40166 37128 ft 455 kts 18°
2026-05-07 21:46 52.70364 8.43667 37124 ft 456 kts 18°
2026-05-07 21:46 52.76336 8.47180 37131 ft 456 kts 18°
2026-05-07 21:47 52.82307 8.50703 37139 ft 456 kts 18°
2026-05-07 21:47 52.88279 8.54238 37148 ft 456 kts 18°
2026-05-07 21:48 52.94246 8.57779 37149 ft 455 kts 18°
2026-05-07 21:48 53.00208 8.61328 37155 ft 455 kts 19°
2026-05-07 21:49 53.06169 8.64887 37157 ft 455 kts 19°
2026-05-07 21:49 53.11811 8.68265 37158 ft 455 kts 19°
2026-05-07 21:50 53.17784 8.71851 37153 ft 454 kts 19°
2026-05-07 21:50 53.23732 8.75433 37151 ft 454 kts 19°
2026-05-07 21:51 53.29669 8.79019 37136 ft 454 kts 19°
2026-05-07 21:51 53.35601 8.82613 37133 ft 453 kts 19°
2026-05-07 21:52 53.41530 8.86216 37133 ft 453 kts 19°
2026-05-07 21:52 53.47454 8.89826 37126 ft 453 kts 19°
2026-05-07 21:53 53.53374 8.93444 37126 ft 453 kts 19°
2026-05-07 21:53 53.59292 8.97073 37137 ft 453 kts 19°
2026-05-07 21:54 53.65169 9.00688 37125 ft 453 kts 19°
2026-05-07 21:54 53.71082 9.04329 37133 ft 452 kts 19°
2026-05-07 21:55 53.76997 9.07986 37127 ft 452 kts 19°
2026-05-07 21:55 53.82904 9.11654 37128 ft 452 kts 19°
2026-05-07 21:56 53.88808 9.15329 37138 ft 452 kts 19°
2026-05-07 21:56 53.94711 9.19013 37143 ft 452 kts 20°
2026-05-07 21:57 54.00604 9.22702 37141 ft 451 kts 20°
2026-05-07 21:57 54.06495 9.26402 37138 ft 451 kts 20°
2026-05-07 21:58 54.12379 9.30109 37151 ft 451 kts 20°
2026-05-07 21:58 54.18258 9.33821 37149 ft 450 kts 20°
2026-05-07 21:59 54.24123 9.37537 37150 ft 449 kts 20°
2026-05-07 21:59 54.29983 9.41263 37151 ft 449 kts 20°
2026-05-07 22:00 54.34841 9.44361 37158 ft 448 kts 20°
2026-05-07 22:00 54.40679 9.48092 37163 ft 447 kts 20°
2026-05-07 22:01 54.46510 9.51830 37152 ft 447 kts 20°
2026-05-07 22:01 54.52328 9.55572 37154 ft 447 kts 21°
2026-05-07 22:02 54.58144 9.59325 37170 ft 446 kts 21°
2026-05-07 22:02 54.63964 9.63091 37151 ft 446 kts 21°
2026-05-07 22:03 54.69732 9.66835 37151 ft 446 kts 21°
2026-05-07 22:03 54.75545 9.70620 37163 ft 447 kts 21°
2026-05-07 22:04 54.81361 9.74417 37161 ft 447 kts 21°
2026-05-07 22:04 54.87262 9.77819 37184 ft 447 kts 17°
2026-05-07 22:05 54.93244 9.80825 37183 ft 448 kts 16°
2026-05-07 22:05 54.99192 9.83813 37184 ft 448 kts 16°
2026-05-07 22:06 55.05170 9.86882 37179 ft 448 kts 17°
2026-05-07 22:06 55.11142 9.89991 37181 ft 448 kts 17°
2026-05-07 22:07 55.17117 9.93119 37176 ft 448 kts 17°
2026-05-07 22:07 55.23085 9.96254 37174 ft 448 kts 17°
2026-05-07 22:08 55.29057 9.99398 37169 ft 447 kts 17°
2026-05-07 22:08 55.35017 10.02546 37164 ft 447 kts 17°
2026-05-07 22:09 55.40966 10.05697 37167 ft 447 kts 17°
2026-05-07 22:09 55.46910 10.08857 37174 ft 446 kts 17°
2026-05-07 22:10 55.52854 10.12025 37176 ft 446 kts 17°
2026-05-07 22:10 55.58785 10.15197 37167 ft 445 kts 17°
2026-05-07 22:11 55.64454 10.18238 37174 ft 445 kts 17°
2026-05-07 22:11 55.70341 10.21407 37170 ft 445 kts 17°
2026-05-07 22:12 55.76268 10.24606 37166 ft 445 kts 17°
2026-05-07 22:12 55.82187 10.27812 37175 ft 445 kts 17°
2026-05-07 22:13 55.88069 10.31007 37178 ft 445 kts 17°
2026-05-07 22:13 55.93993 10.34236 37170 ft 445 kts 17°
2026-05-07 22:14 55.99920 10.37477 37167 ft 446 kts 17°
2026-05-07 22:14 56.05849 10.40729 37171 ft 446 kts 17°
2026-05-07 22:15 56.11781 10.43993 37180 ft 446 kts 17°
2026-05-07 22:15 56.17723 10.47273 37170 ft 447 kts 17°
2026-05-07 22:16 56.23661 10.50563 37173 ft 447 kts 17°
2026-05-07 22:16 56.29604 10.53865 37185 ft 447 kts 17°
2026-05-07 22:17 56.35546 10.57178 37185 ft 447 kts 17°
2026-05-07 22:17 56.41496 10.60506 37188 ft 447 kts 17°
2026-05-07 22:18 56.50409 10.65511 37180 ft 447 kts 17°
2026-05-07 22:19 56.56351 10.68862 37176 ft 447 kts 17°
2026-05-07 22:19 56.62283 10.72218 37174 ft 447 kts 17°
2026-05-07 22:20 56.68214 10.75584 37176 ft 446 kts 17°
2026-05-07 22:20 56.74141 10.78959 37173 ft 446 kts 17°
2026-05-07 22:21 56.80058 10.82341 37174 ft 446 kts 17°
2026-05-07 22:21 56.85975 10.85733 37176 ft 445 kts 17°
2026-05-07 22:22 56.91883 10.89132 37185 ft 445 kts 17°
2026-05-07 22:22 56.97796 10.92543 37177 ft 445 kts 17°
2026-05-07 22:23 57.03662 10.95940 37178 ft 445 kts 17°
2026-05-07 22:23 57.09569 10.99373 37177 ft 445 kts 17°
2026-05-07 22:24 57.15471 11.02812 37177 ft 445 kts 17°
2026-05-07 22:24 57.21372 11.06263 37179 ft 445 kts 16°
2026-05-07 22:25 57.27277 11.09728 37176 ft 445 kts 17°
2026-05-07 22:25 57.33177 11.13203 37177 ft 445 kts 17°
2026-05-07 22:26 57.39075 11.16688 37177 ft 445 kts 17°
2026-05-07 22:26 57.44974 11.20185 37182 ft 445 kts 16°
2026-05-07 22:27 57.50878 11.23697 37181 ft 445 kts 16°
2026-05-07 22:27 57.56775 11.27217 37178 ft 445 kts 16°
2026-05-07 22:28 57.62683 11.30755 37180 ft 446 kts 16°
2026-05-07 22:28 57.68585 11.34301 37186 ft 446 kts 16°
2026-05-07 22:29 57.74492 11.37864 37183 ft 446 kts 16°
2026-05-07 22:29 57.80403 11.41441 37179 ft 447 kts 16°
2026-05-07 22:29 57.83377 11.43244 36861 ft 450 kts 16°
2026-05-07 22:30 57.86338 11.45044 36559 ft 444 kts 16°
2026-05-07 22:30 57.89256 11.46823 36177 ft 438 kts 16°
2026-05-07 22:30 57.92144 11.48585 35782 ft 434 kts 16°
2026-05-07 22:30 57.95001 11.50330 35387 ft 430 kts 16°
2026-05-07 22:31 57.97833 11.52063 35014 ft 426 kts 15°
2026-05-07 22:31 58.00646 11.53787 34622 ft 423 kts 15°
2026-05-07 22:31 58.03431 11.55497 34237 ft 420 kts 15°
2026-05-07 22:31 58.06195 11.57196 33802 ft 416 kts 15°
2026-05-07 22:32 58.08941 11.58887 33388 ft 413 kts 15°
2026-05-07 22:32 58.11651 11.60558 33006 ft 408 kts 15°
2026-05-07 22:32 58.14344 11.62219 32629 ft 404 kts 14°
2026-05-07 22:32 58.17059 11.63374 32244 ft 397 kts
2026-05-07 22:33 58.19793 11.63609 31893 ft 390 kts 354°
2026-05-07 22:33 58.22465 11.63028 31530 ft 384 kts 348°
2026-05-07 22:33 58.25087 11.62206 31171 ft 381 kts 347°
2026-05-07 22:33 58.27693 11.61346 30786 ft 379 kts 347°
2026-05-07 22:34 58.30284 11.60437 30292 ft 381 kts 346°
2026-05-07 22:34 58.32893 11.59492 29724 ft 382 kts 346°
2026-05-07 22:34 58.35503 11.58538 29174 ft 382 kts 346°
2026-05-07 22:34 58.38116 11.57582 28624 ft 382 kts 346°
2026-05-07 22:35 58.40725 11.56630 28080 ft 382 kts 346°
2026-05-07 22:35 58.43329 11.55681 27550 ft 381 kts 346°
2026-05-07 22:35 58.45902 11.54744 27036 ft 381 kts 346°
2026-05-07 22:35 58.48515 11.53792 26543 ft 386 kts 347°
2026-05-07 22:36 58.51185 11.52817 26052 ft 395 kts 346°
2026-05-07 22:36 58.53877 11.51834 25546 ft 393 kts 346°
2026-05-07 22:36 58.56550 11.50860 25128 ft 389 kts 346°
2026-05-07 22:36 58.59207 11.49891 24723 ft 388 kts 346°
2026-05-07 22:37 58.61856 11.48922 24319 ft 387 kts 347°
2026-05-07 22:37 58.64494 11.47955 23924 ft 385 kts 347°
2026-05-07 22:37 58.67113 11.46994 23476 ft 383 kts 347°
2026-05-07 22:37 58.69720 11.46036 23033 ft 380 kts 347°
2026-05-07 22:38 58.72304 11.45085 22622 ft 377 kts 347°
2026-05-07 22:38 58.74864 11.44141 22233 ft 374 kts 347°
2026-05-07 22:38 58.77412 11.43200 21849 ft 371 kts 346°
2026-05-07 22:38 58.79941 11.42264 21451 ft 370 kts 347°
2026-05-07 22:39 58.82460 11.41330 21092 ft 368 kts 346°
2026-05-07 22:39 58.84974 11.40397 20698 ft 367 kts 346°
2026-05-07 22:39 58.87483 11.39463 20320 ft 366 kts 346°
2026-05-07 22:39 58.89982 11.38533 19947 ft 366 kts 346°
2026-05-07 22:40 58.92481 11.37601 19562 ft 365 kts 346°
2026-05-07 22:40 58.94966 11.36673 19197 ft 363 kts 346°
2026-05-07 22:40 58.97437 11.35750 18829 ft 360 kts 346°
2026-05-07 22:40 58.99889 11.34833 18447 ft 356 kts 346°
2026-05-07 22:41 59.02306 11.33927 18033 ft 352 kts 346°
2026-05-07 22:41 59.04694 11.33032 17641 ft 347 kts 346°
2026-05-07 22:41 59.07022 11.32158 17292 ft 333 kts 346°
2026-05-07 22:41 59.09275 11.31313 16952 ft 328 kts 346°
2026-05-07 22:42 59.11491 11.30477 16625 ft 325 kts 346°
2026-05-07 22:42 59.13709 11.29638 16287 ft 322 kts 346°
2026-05-07 22:42 59.15898 11.28809 15946 ft 319 kts 346°
2026-05-07 22:42 59.18069 11.27987 15612 ft 317 kts 346°
2026-05-07 22:43 59.20224 11.27169 15295 ft 314 kts 346°
2026-05-07 22:43 59.22359 11.26358 14973 ft 312 kts 346°
2026-05-07 22:43 59.24482 11.25551 14655 ft 309 kts 346°
2026-05-07 22:43 59.26586 11.24750 14315 ft 307 kts 346°
2026-05-07 22:44 59.28675 11.23954 14011 ft 305 kts 346°
2026-05-07 22:44 59.30753 11.23161 13657 ft 303 kts 346°
2026-05-07 22:44 59.32813 11.22374 13332 ft 300 kts 346°
2026-05-07 22:44 59.34858 11.21592 13053 ft 298 kts 346°
2026-05-07 22:45 59.36885 11.20816 12740 ft 296 kts 346°
2026-05-07 22:45 59.38891 11.20047 12455 ft 293 kts 346°
2026-05-07 22:45 59.40888 11.19280 12156 ft 292 kts 346°
2026-05-07 22:45 59.42872 11.18518 11848 ft 290 kts 346°
2026-05-07 22:46 59.44848 11.17757 11552 ft 289 kts 346°
2026-05-07 22:46 59.46829 11.16994 11260 ft 292 kts 346°
2026-05-07 22:46 59.48838 11.16217 10965 ft 296 kts 346°
2026-05-07 22:46 59.50875 11.15429 10658 ft 300 kts 347°
2026-05-07 22:47 59.52901 11.14645 10360 ft 297 kts 347°
2026-05-07 22:47 59.54247 11.14127 10233 ft 287 kts 347°
2026-05-07 22:47 59.56789 11.13146 9879 ft 278 kts 347°
2026-05-07 22:47 59.58681 11.12412 9574 ft 277 kts 347°
2026-05-07 22:48 59.60593 11.11667 9305 ft 285 kts 347°
2026-05-07 22:48 59.62576 11.10892 9016 ft 294 kts 347°
2026-05-07 22:48 59.64600 11.10102 8716 ft 298 kts 347°
2026-05-07 22:48 59.65978 11.09565 8509 ft 301 kts 347°
2026-05-07 22:49 59.68007 11.08773 8200 ft 300 kts 348°
2026-05-07 22:49 59.70039 11.07980 7897 ft 296 kts 348°
2026-05-07 22:49 59.72046 11.07195 7612 ft 293 kts 348°
2026-05-07 22:49 59.74034 11.06418 7325 ft 289 kts 348°
2026-05-07 22:50 59.76001 11.05648 7033 ft 287 kts 348°
2026-05-07 22:50 59.77954 11.04881 6763 ft 285 kts 348°
2026-05-07 22:50 59.79896 11.04117 6480 ft 283 kts 348°
2026-05-07 22:50 59.81804 11.03368 6159 ft 276 kts 348°
2026-05-07 22:51 59.83652 11.02641 5869 ft 266 kts 348°
2026-05-07 22:51 59.85429 11.01941 5755 ft 256 kts 348°
2026-05-07 22:51 59.87141 11.01265 5665 ft 245 kts 348°
2026-05-07 22:51 59.88800 11.00610 5554 ft 242 kts 348°
2026-05-07 22:52 59.90452 10.99957 5445 ft 242 kts 348°
2026-05-07 22:52 59.92108 10.99302 5330 ft 242 kts 348°
2026-05-07 22:52 59.93772 10.98642 5123 ft 247 kts 348°
2026-05-07 22:52 59.95457 10.97974 4961 ft 244 kts 348°
2026-05-07 22:53 59.97079 10.97330 4811 ft 232 kts 348°
2026-05-07 22:53 59.98628 10.96718 4632 ft 222 kts 350°
2026-05-07 22:53 60.00129 10.96835 4383 ft 214 kts 18°
2026-05-07 22:53 60.01531 10.97686 4111 ft 208 kts 16°
2026-05-07 22:54 60.02917 10.98426 3839 ft 204 kts 17°
2026-05-07 22:54 60.04275 10.99180 3566 ft 201 kts 17°
2026-05-07 22:54 60.05608 10.99941 3295 ft 198 kts 17°
2026-05-07 22:54 60.06924 11.00698 3031 ft 194 kts 17°
2026-05-07 22:55 60.08213 11.01442 2781 ft 192 kts 17°
2026-05-07 22:55 60.09477 11.02171 2533 ft 184 kts 17°
2026-05-07 22:55 60.10665 11.02858 2284 ft 173 kts 17°
2026-05-07 22:55 60.11765 11.03493 2071 ft 159 kts 16°
2026-05-07 22:56 60.12800 11.04090 1875 ft 153 kts 16°
2026-05-07 22:56 60.13833 11.04685 1663 ft 155 kts 16°
2026-05-07 22:56 60.14869 11.05289 1428 ft 154 kts 16°
2026-05-07 22:56 60.15875 11.05872 1216 ft 148 kts 15°
2026-05-07 22:57 60.16849 11.06437 1026 ft 145 kts 15°
2026-05-07 22:57 60.17815 11.06985 833 ft 144 kts 14°
2026-05-07 22:57 60.18776 11.07538 672 ft 141 kts 15°
2026-05-07 22:57 60.19525 11.07965 672 ft 69 kts 15°
2026-05-07 22:58 60.19889 11.08173 674 ft 48 kts 16°
2026-05-07 22:58 60.20145 11.08353 673 ft 30 kts 28°
2026-05-07 22:58 60.20249 11.08548 676 ft 16 kts 75°
2026-05-07 22:58 60.20231 11.08750 679 ft 15 kts 105°
2026-05-07 22:59 60.20202 11.08946 680 ft 14 kts 107°
2026-05-07 22:59 60.20171 11.09147 679 ft 15 kts 107°
2026-05-07 22:59 60.20136 11.09382 679 ft 21 kts 106°
2026-05-07 22:59 60.20095 11.09673 680 ft 22 kts 106°
2026-05-07 23:00 60.20054 11.09961 678 ft 21 kts 106°
2026-05-07 23:00 60.20014 11.10240 685 ft 20 kts 106°
2026-05-07 23:00 60.19976 11.10501 682 ft 16 kts 106°
2026-05-07 23:00 60.19908 11.10587 683 ft 13 kts 194°
2026-05-07 23:01 60.19820 11.10537 681 ft 14 kts 196°
2026-05-07 23:01 60.19730 11.10485 683 ft 13 kts 196°
2026-05-07 23:01 60.19645 11.10435 680 ft 12 kts 196°
2026-05-07 23:01 60.19579 11.10378 680 ft 8 kts 242°
2026-05-07 23:02 60.19565 11.10287 684 ft 7 kts 233°
2026-05-07 23:02 60.19556 11.10206 684 ft 6 kts 285°
2026-05-07 23:02 60.19563 11.10160 684 ft 1 kts 286°
2026-05-07 23:02 60.19563 11.10159 684 ft 0 kts 286°